1376352030576,2.04597
1376352090576,2.07811
1376352150576,2.08950
1376352210576,2.09111
1376352270576,2.09485
1376352330576,2.10715
1376352390576,2.09909
1376352450576,2.06750
1376352510576,2.08319
1376352570576,2.09332
1376352630576,2.09051
1376352690576,2.10078
1376352750576,2.09407
1376352810576,2.10550
1376352870576,2.09146
1376352930576,2.07544
1376352990576,2.10035
1376353050576,2.10957
1376353110576,2.10074
1376353170576,2.10047
1376353230576,2.10032
1376353290576,2.08338
1376353350576,2.12285
1376353410576,2.07913
1376353470576,2.10530
1376353530576,2.08762
1376353590576,2.06836
1376353650576,2.09271
1376353710576,2.08334
1376353770576,2.08437
1376353830576,2.07177
1376353890576,2.10661
1376353950576,2.09126
1376354010576,2.08355
1376354070576,2.10216
1376354130576,2.09089
1376354190576,2.09086
1376354250576,2.11226
1376354310576,2.08089
1376354370576,2.08496
1376354430576,2.10015
1376354490576,2.10344
1376354550576,2.09755
1376354610576,2.09307
1376354670576,2.08065
1376354730576,2.09929
1376354790576,2.12029
1376354850576,2.07040
1376354910576,2.10144
1376354970576,2.09329
1376355030576,2.08688
1376355090576,2.10965
1376355150576,2.07350
1376355210576,2.10185
1376355270576,2.10790
1376355330576,2.10831
1376355390576,2.10011
1376355450576,2.09475
1376355510576,2.12046
1376355570576,2.13050
1376355630586,2.10158
1376355690586,2.09474
1376355750586,2.07651
1376355810586,2.07683
1376355870586,2.09516
1376355930586,2.10025
1376355990586,2.07974
1376356050586,2.08100
1376356110586,2.09168
1376356170586,2.08343
1376356230586,2.06913
1376356290586,2.09300
1376356350586,2.10320
1376356410586,2.08873
1376356470586,2.09659
1376356530586,2.12350
1376356590586,2.08864
1376356650586,2.08732
1376356710586,2.11384
1376356770586,2.12817
1376356830586,2.12262
1376356890586,2.11005
1376356950586,2.10904
1376357010586,2.09453
1376357070586,2.09891
1376357130586,2.10013
1376357190586,2.08165
1376357250586,2.06435
1376357310586,2.10742
1376357370586,2.08167
1376357430586,2.10795
1376357490586,2.08516
1376357550586,2.10813
1376357610586,2.11721
1376357670586,2.08328
1376357730586,2.10748
1376357790586,2.48702
1376357850586,2.10015
1376357910586,2.10795
1376357970586,2.11833
1376358030586,2.09853
1376358090586,2.15633
1376358150586,2.10546
1376358210586,2.09611
1376358270586,2.12852
1376358330586,2.09438
1376358390586,2.10528
1376358450586,2.12376
1376358510586,2.09100
1376358570586,2.09531
1376358630586,2.09156
1376358690586,2.10181
1376358750586,2.07613
1376358810586,2.09950
1376358870586,2.08889
1376358930586,2.09570
1376358990586,2.10837
1376359050586,2.09619
1376359110586,2.11913
1376359170586,2.09641
1376359230596,2.07247
1376359290596,2.10337
1376359350596,2.10569
1376359410596,2.08842
1376359470596,2.12563
1376359530596,2.12065
1376359590596,2.10250
1376359650596,2.09505
1376359710596,2.09602
1376359770596,2.09235
1376359830596,2.09281
1376359890596,2.09904
1376359950596,2.10888
1376360010596,2.09091
1376360070596,2.07755
1376360130596,2.08644
1376360190596,2.11192
1376360250596,2.11239
1376360310596,2.10819
1376360370596,2.10631
1376360430596,2.08424
1376360490596,2.08792
1376360550596,2.08909
1376360610596,2.12000
1376360670596,2.12605
1376360730596,2.09779
1376360790596,2.10910
1376360850596,2.13457
1376360910596,2.10845
1376360970596,2.11313
1376361030596,2.10543
1376361090596,2.09399
1376361150596,2.11417
1376361210596,2.09708
1376361270596,2.11684
1376361330596,2.08975
1376361390596,2.10457
1376361450596,2.13975
1376361510596,2.12205
1376361570596,2.09578
1376361630596,2.11717
1376361690596,2.07265
1376361750596,2.12638
1376361810596,2.10192
1376361870596,2.08770
1376361930596,2.12061
1376361990596,2.08875
1376362050596,2.13434
1376362110596,2.11478
1376362170596,2.10842
1376362230596,2.10048
1376362290596,2.07916
1376362350596,2.11194
1376362410596,2.09832
1376362470596,2.11574
1376362530596,2.10960
1376362590596,2.07324
1376362650596,2.09883
1376362710596,2.09621
1376362770596,2.11136
1376362830606,2.13415
1376362890606,2.09214
1376362950606,2.07396
1376363010606,2.12260
1376363070606,2.12714
1376363130606,2.12565
1376363190606,2.10758
1376363250606,2.09369
1376363310606,2.10201
1376363370606,2.12284
1376363430606,2.13081
1376363490606,2.07491
1376363550606,2.09730
1376363610606,2.07722
1376363670606,2.09409
1376363730606,2.09685
1376363790606,2.10837
1376363850606,2.09930
1376363910606,2.10500
1376363970606,2.07557
1376364030606,2.09767
1376364090606,2.09306
1376364150606,2.08242
1376364210606,2.08935
1376364270606,2.09319
1376364330606,2.07944
1376364390606,2.12725
1376364450606,2.10490
1376364510606,2.11690
1376364570606,2.07580
1376364630606,2.08840
1376364690606,2.06361
1376364750606,2.11336
1376364810606,2.10617
1376364870606,2.09935
1376364930606,2.23020
1376364990606,2.10857
1376365050606,2.11253
1376365110606,2.08541
1376365170606,2.11032
1376365230606,2.09240
1376365290606,2.09892
1376365350606,2.09242
1376365410606,2.08457
1376365470606,2.11186
1376365530606,2.07014
1376365590606,2.11344
1376365650606,2.09040
1376365710606,2.08243
1376365770606,2.10171
1376365830606,2.10625
1376365890606,2.09842
1376365950606,2.07284
1376366010606,2.08629
1376366070606,2.08951
1376366130606,2.07851
1376366190606,2.11664
1376366250606,2.08512
1376366310606,2.09034
1376366370606,2.08824
1376366430616,2.08729
1376366490616,2.11483
1376366550616,2.08106
1376366610616,2.12210
1376366670616,2.06026
1376366730616,2.08584
1376366790616,2.08198
1376366850616,2.09564
1376366910616,2.09244
1376366970616,2.11623
1376367030616,2.09229
1376367090616,2.07743
1376367150616,2.07159
1376367210616,2.11585
1376367270616,2.09990
1376367330616,2.08977
1376367390616,2.10595
1376367450616,2.08139
1376367510616,2.09553
1376367570616,2.07282
1376367630616,2.09570
1376367690616,2.09813
1376367750616,2.09198
1376367810616,2.09549
1376367870616,2.10544
1376367930616,2.09346
1376367990616,2.06744
1376368050616,2.07660
1376368110616,2.07470
1376368170616,2.06564
1376368230616,2.07512
1376368290616,2.10373
1376368350616,2.09168
1376368410616,2.08272
1376368470616,2.05228
1376368530616,2.09980
1376368590616,2.08801
1376368650616,2.09002
1376368710616,2.07585
1376368770616,2.11650
1376368830616,2.07521
1376368890616,2.08193
1376368950616,2.10762
1376369010616,2.10039
1376369070616,2.11940
1376369130616,2.11691
1376369190616,2.08135
1376369250616,2.09996
1376369310616,2.10508
1376369370616,2.12095
1376369430616,2.07063
1376369490616,2.09678
1376369550616,2.09622
1376369610616,2.10599
1376369670616,2.10383
1376369730616,2.09166
1376369790616,2.09799
1376369850616,2.09486
1376369910616,2.11116
1376369970616,2.08410
1376370030626,2.10206
1376370090626,2.09959
1376370150626,2.12025
1376370210626,2.10980
1376370270626,2.10748
1376370330626,2.08866
1376370390626,2.09725
1376370450626,2.08421
1376370510626,2.09242
1376370570626,2.11075
1376370630626,2.10841
1376370690626,2.09707
1376370750626,2.09736
1376370810626,2.09036
1376370870626,2.11628
1376370930626,2.09130
1376370990626,2.09312
1376371050626,2.09714
1376371110626,2.12343
1376371170626,2.09210
1376371230626,2.10001
1376371290626,2.10147
1376371350626,2.18814
1376371410626,2.10413
1376371470626,2.11866
1376371530626,2.13568
1376371590626,2.09777
1376371650626,2.11542
1376371710626,2.10356
1376371770626,2.11453
1376371830626,2.10258
1376371890626,2.08652
1376371950626,2.09755
1376372010626,2.11400
1376372070626,2.11284
1376372130626,2.14001
1376372190626,2.10094
1376372250626,2.09863
1376372310626,2.11707
1376372370626,2.09356
1376372430626,2.14811
1376372490626,2.09718
1376372550626,2.09740
1376372610626,2.10884
1376372670626,2.11097
1376372730626,2.08813
1376372790626,2.12443
1376372850626,2.13788
1376372910626,2.09880
1376372970626,2.11261
1376373030626,2.12409
1376373090626,2.13283
1376373150626,2.11759
1376373210626,2.11730
1376373270626,2.09108
1376373330626,2.12090
1376373390626,2.11201
1376373450626,2.14134
1376373510626,2.10538
1376373570626,2.12270
1376373630635,2.09266
1376373690635,2.08171
1376373750635,2.11195
1376373810635,2.09727
1376373870635,2.12370
1376373930635,2.13334
1376373990635,2.12955
1376374050635,2.09193
1376374110635,2.10279
1376374170635,2.12506
1376374230635,2.09510
1376374290635,2.12366
1376374350635,2.10733
1376374410635,2.12715
1376374470635,2.13585
1376374530635,2.12535
1376374590635,2.13863
1376374650635,2.08686
1376374710635,2.12028
1376374770635,2.12662
1376374830635,2.11191
1376374890635,2.11693
1376374950635,2.11365
1376375010635,2.10155
1376375070635,2.11216
1376375130635,2.11343
1376375190635,2.10830
1376375250635,2.09773
1376375310635,2.13308
1376375370635,2.11243
1376375430635,2.09513
1376375490635,2.10764
1376375550635,2.11572
1376375610635,2.11618
1376375670635,2.16879
1376375730635,2.11046
1376375790635,2.11326
1376375850635,2.09438
1376375910635,2.11321
1376375970635,2.12069
1376376030635,2.11012
1376376090635,2.09245
1376376150635,2.13011
1376376210635,2.13247
1376376270635,2.12683
1376376330635,2.12785
1376376390635,2.12057
1376376450635,2.12198
1376376510635,2.10980
1376376570635,2.12589
1376376630635,2.12355
1376376690635,2.09003
1376376750635,2.13225
1376376810635,2.12350
1376376870635,2.10368
1376376930635,2.14475
1376376990635,2.08910
1376377050635,2.13845
1376377110635,2.12336
1376377170635,2.10436
1376377230645,2.10145
1376377290645,2.11733
1376377350645,2.09509
1376377410645,2.10022
1376377470645,2.09605
1376377530645,2.11259
1376377590645,2.10062
1376377650645,2.12748
1376377710645,2.12909
1376377770645,2.11756
1376377830645,2.10825
1376377890645,2.09745
1376377950645,2.12617
1376378010645,2.08766
1376378070645,2.11407
1376378130645,2.10070
1376378190645,2.14916
1376378250645,2.09455
1376378310645,2.10438
1376378370645,2.08701
1376378430645,2.09341
1376378490645,2.10260
1376378550645,2.10371
1376378610645,2.11354
1376378670645,2.08868
1376378730645,2.08925
1376378790645,2.08965
1376378850645,2.10329
1376378910645,2.11318
1376378970645,2.07910
1376379030645,2.11510
1376379090645,2.12223
1376379150645,2.10808
1376379210645,2.09771
1376379270645,2.11623
1376379330645,2.08992
1376379390645,2.08190
1376379450645,2.10192
1376379510645,2.10385
1376379570645,2.10812
1376379630645,2.09098
1376379690645,2.10995
1376379750645,2.11355
1376379810645,2.09645
1376379870645,2.07411
1376379930645,2.08054
1376379990645,2.10927
1376380050645,2.08054
1376380110645,2.06440
1376380170645,2.08665
1376380230645,2.10015
1376380290645,2.12992
1376380350645,2.09131
1376380410645,2.09329
1376380470645,2.11177
1376380530645,2.09737
1376380590645,2.09225
1376380650645,2.09618
1376380710645,2.10078
1376380770645,2.06642
1376380830655,2.11232
1376380890655,2.12013
1376380950655,2.10708
1376381010655,2.09870
1376381070655,2.09477
1376381130655,2.09405
1376381190655,2.06892
1376381250655,2.10331
1376381310655,2.09808
1376381370655,2.09344
1376381430655,2.08098
1376381490655,2.08923
1376381550655,2.12616
1376381610655,2.08658
1376381670655,2.08737
1376381730655,2.11719
1376381790655,2.09356
1376381850655,2.10481
1376381910655,2.10365
1376381970655,2.13466
1376382030655,2.07654
1376382090655,2.11893
1376382150655,2.10724
1376382210655,2.11276
1376382270655,2.10638
1376382330655,2.11341
1376382390655,2.09296
1376382450655,2.11931
1376382510655,2.08687
1376382570655,2.07360
1376382630655,2.10348
1376382690655,2.06740
1376382750655,2.09452
1376382810655,2.11300
1376382870655,2.08723
1376382930655,2.11447
1376382990655,2.07651
1376383050655,2.09479
1376383110655,2.09667
1376383170655,2.09295
1376383230655,2.07677
1376383290655,2.08453
1376383350655,2.09369
1376383410655,2.13608
1376383470655,2.10520
1376383530655,2.09739
1376383590655,2.09962
1376383650655,2.14716
1376383710655,2.10065
1376383770655,2.08605
1376383830655,2.10089
1376383890655,2.09740
1376383950655,2.06967
1376384010655,2.08987
1376384070655,2.11255
1376384130655,2.08926
1376384190655,2.10264
1376384250655,2.09406
1376384310655,2.06489
1376384370655,2.10178
1376384430666,2.09093
1376384490666,2.11477
1376384550666,2.13284
1376384610666,2.11264
1376384670666,2.10559
1376384730665,2.10764
1376384790665,2.12350
1376384850665,2.10864
1376384910665,2.09340
1376384970665,2.08770
1376385030665,2.10367
1376385090665,2.10051
1376385150665,2.07777
1376385210665,2.09298
1376385270665,2.10108
1376385330666,2.08753
1376385390666,2.09785
1376385450665,2.10120
1376385510665,2.08883
1376385570665,2.09188
1376385630665,2.05902
1376385690666,2.08076
1376385750666,2.11737
1376385810666,2.09879
1376385870666,2.10744
1376385930666,2.10092
1376385990666,2.04661
1376386050666,2.12232
1376386110665,2.11592
1376386170665,2.12633
1376386230665,2.09672
1376386290665,2.09534
1376386350665,2.14690
1376386410665,2.09106
1376386470665,2.13599
1376386530665,2.09460
1376386590665,2.11033
1376386650665,2.09622
1376386710666,2.07974
1376386770665,2.12086
1376386830665,2.10520
1376386890665,2.09503
1376386950665,2.12710
1376387010666,2.08606
1376387070666,2.11294
1376387130666,2.09832
1376387190666,2.09185
1376387250666,2.09152
1376387310666,2.13088
1376387370666,2.09537
1376387430665,2.13248
1376387490665,2.10856
1376387550665,2.09316
1376387610665,2.11038
1376387670665,2.12416
1376387730665,2.14129
1376387790665,2.09574
1376387850665,2.11361
1376387910665,2.13398
1376387970665,2.08935
1376388030676,2.11221
1376388090676,2.08249
1376388150676,2.09055
1376388210676,2.10131
1376388270676,2.08683
1376388330676,2.08747
1376388390676,2.09288
1376388450676,2.12951
1376388510676,2.10714
1376388570676,2.11473
1376388630676,2.10158
1376388690676,2.13650
1376388750676,2.13264
1376388810676,2.13729
1376388870676,2.11376
1376388930676,2.13442
1376388990676,2.10708
1376389050676,2.12925
1376389110676,2.12557
1376389170676,2.08461
1376389230676,2.13069
1376389290676,2.39097
1376389350676,2.15389
1376389410676,2.07483
1376389470676,2.10717
1376389530676,2.11942
1376389590676,2.13037
1376389650676,2.12988
1376389710676,2.10757
1376389770676,2.15629
1376389830676,2.12701
1376389890676,2.12340
1376389950676,2.14483
1376390010676,2.13390
1376390070676,2.13215
1376390130676,2.09784
1376390190676,2.12834
1376390250676,2.10013
1376390310676,2.09735
1376390370676,2.11817
1376390430676,2.12072
1376390490676,2.12582
1376390550676,2.13382
1376390610676,2.11593
1376390670676,2.11075
1376390730676,2.11449
1376390790676,2.11103
1376390850676,2.10617
1376390910676,2.11261
1376390970676,2.12308
1376391030676,2.13906
1376391090676,2.11418
1376391150676,2.10238
1376391210676,2.12372
1376391270676,2.10514
1376391330676,2.19319
1376391390676,2.17305
1376391450676,2.13368
1376391510676,2.09914
1376391570676,2.10510
1376391630686,2.11948
1376391690686,2.11393
1376391750686,2.13829
1376391810686,2.10839
1376391870686,2.12420
1376391930686,2.13508
1376391990686,2.12073
1376392050686,2.11256
1376392110686,2.09906
1376392170686,2.12887
1376392230686,2.13280
1376392290686,2.14351
1376392350686,2.13306
1376392410686,2.10909
1376392470686,2.12801
1376392530686,2.13465
1376392590686,2.11957
1376392650686,2.14753
1376392710686,2.10400
1376392770686,2.12287
1376392830686,2.11155
1376392890686,2.10106
1376392950686,2.15474
1376393010686,2.12148
1376393070686,2.12450
1376393130686,2.09921
1376393190686,2.09765
1376393250686,2.17616
1376393310686,2.13549
1376393370686,2.10767
1376393430686,2.12510
1376393490686,2.11255
1376393550686,2.11888
1376393610686,2.13039
1376393670686,2.11201
1376393730686,2.12046
1376393790686,2.13772
1376393850686,2.11481
1376393910686,2.11668
1376393970686,2.13985
1376394030686,2.15265
1376394090686,2.15246
1376394150686,2.13932
1376394210686,2.16310
1376394270686,2.13660
1376394330686,2.14240
1376394390686,2.15530
1376394450686,2.17138
1376394510686,2.11578
1376394570686,2.12019
1376394630686,2.13925
1376394690686,2.15276
1376394750686,2.16353
1376394810686,2.13621
1376394870686,2.12878
1376394930686,2.13111
1376394990686,2.14466
1376395050686,2.13713
1376395110686,2.16744
1376395170686,2.14011
1376395230696,2.15748
1376395290696,2.15786
1376395350696,2.15940
1376395410696,2.10090
1376395470696,2.14408
1376395530696,2.15818
1376395590696,2.15103
1376395650696,2.15164
1376395710696,2.15652
1376395770696,2.15433
1376395830696,2.16376
1376395890696,2.15917
1376395950696,2.13726
1376396010696,2.15903
1376396070696,2.15731
1376396130696,2.14385
1376396190696,2.17108
1376396250696,2.12519
1376396310696,2.15768
1376396370696,2.17973
1376396430696,2.15686
1376396490696,2.15807
1376396550696,2.15639
1376396610696,2.16892
1376396670696,2.15595
1376396730696,2.15133
1376396790696,2.13558
1376396850696,2.14290
1376396910696,2.13590
1376396970696,2.13700
1376397030696,2.14300
1376397090696,2.14583
1376397150696,2.17186
1376397210696,2.15959
1376397270696,2.15850
1376397330696,2.14001
1376397390696,2.14592
1376397450696,2.14742
1376397510696,2.14112
1376397570696,2.13641
1376397630696,2.13722
1376397690696,2.15935
1376397750696,2.13073
1376397810696,2.13140
1376397870696,2.14368
1376397930696,2.16452
1376397990696,2.14325
1376398050696,2.14261
1376398110696,2.14227
1376398170696,2.12854
1376398230696,2.14863
1376398290696,2.15113
1376398350696,2.14610
1376398410696,2.14043
1376398470696,2.12808
1376398530696,2.12433
1376398590696,2.13486
1376398650696,2.16589
1376398710696,2.16583
1376398770696,2.13357
1376398830707,2.12806
1376398890707,2.15492
1376398950707,2.16681
1376399010707,2.16233
1376399070707,2.13709
1376399130707,2.11692
1376399190707,2.11292
1376399250707,2.13266
1376399310707,2.13498
1376399370707,2.16041
1376399430707,2.13912
1376399490707,2.15293
1376399550707,2.15130
1376399610707,2.18053
1376399670707,2.15240
1376399730707,2.15454
1376399790707,2.16108
1376399850707,2.16049
1376399910707,2.16687
1376399970707,2.16858
1376400030707,2.11886
1376400090707,2.13882
1376400150707,2.16255
1376400210707,2.16336
1376400270707,2.18239
1376400330707,2.17487
1376400390707,2.15103
1376400450707,2.17688
1376400510707,2.17791
1376400570707,2.13683
1376400630707,2.17245
1376400690707,2.15814
1376400750707,2.14933
1376400810707,2.16254
1376400870707,2.16661
1376400930707,2.16100
1376400990707,2.17869
1376401050707,2.16388
1376401110707,2.16062
1376401170707,2.16811
1376401230707,2.14708
1376401290707,2.14823
1376401350707,2.18109
1376401410707,2.14987
1376401470707,2.16890
1376401530707,2.15286
1376401590707,2.16172
1376401650707,2.14753
1376401710707,2.16997
1376401770707,2.15287
1376401830707,2.17311
1376401890707,2.16265
1376401950707,2.12567
1376402010707,2.16540
1376402070707,2.16274
1376402130707,2.17309
1376402190707,2.15209
1376402250707,2.21505
1376402310707,2.18352
1376402370707,2.16558
1376402430718,2.19621
1376402490718,2.17547
1376402550718,2.17587
1376402610718,2.15978
1376402670718,2.17002
1376402730718,2.17884
1376402790718,2.19821
1376402850718,2.16476
1376402910718,2.17436
1376402970718,2.20308
1376403030718,2.14583
1376403090718,2.18154
1376403150718,2.18000
1376403210718,2.16250
1376403270718,2.17567
1376403330718,2.21011
1376403390718,2.19361
1376403450718,2.17553
1376403510718,2.22004
1376403570718,2.17817
1376403630718,2.20327
1376403690718,2.12916
1376403750718,2.16915
1376403810718,2.17234
1376403870718,2.15294
1376403930718,2.21131
1376403990718,2.16894
1376404050718,2.19582
1376404110718,2.17133
1376404170718,2.18751
1376404230718,2.14172
1376404290718,2.18385
1376404350718,2.20246
1376404410718,2.19668
1376404470718,2.18984
1376404530718,2.19836
1376404590718,2.21180
1376404650718,2.19956
1376404710718,2.18446
1376404770718,2.19630
1376404830718,2.18914
1376404890718,2.18085
1376404950718,2.18595
1376405010718,2.19666
1376405070718,2.18030
1376405130718,2.21073
1376405190718,2.15764
1376405250718,2.19424
1376405310718,2.19518
1376405370718,2.18439
1376405430718,2.16729
1376405490718,2.20796
1376405550718,2.16344
1376405610718,2.18936
1376405670718,2.20606
1376405730718,2.20138
1376405790718,2.18807
1376405850718,2.17430
1376405910718,2.16592
1376405970718,2.17289
1376406030729,2.20194
1376406090729,2.19427
1376406150729,2.18337
1376406210729,2.18683
1376406270729,2.17895
1376406330729,2.18783
1376406390729,2.15456
1376406450728,2.17061
1376406510728,2.19679
1376406570728,2.17606
1376406630729,2.15435
1376406690729,2.10415
1376407230729,2.18049
1376407290729,2.18839
1376407350729,2.19212
1376407410729,2.21010
1376407470729,2.15407
1376407530729,2.16663
1376407590729,2.18273
1376407650729,2.16290
1376407710729,2.17228
1376407770728,2.19487
1376407830728,2.19992
1376407890728,2.19638
1376407950728,2.20863
1376408010729,2.19588
1376408070729,2.19602
1376408130729,2.18931
1376408190729,2.18855
1376408250729,2.22549
1376408310729,2.17963
1376408370729,2.17143
1376408430729,2.20513
1376408490729,2.22896
1376408550729,2.21635
1376408610729,2.19716
1376408670729,2.21785
1376408730729,2.21342
1376408790729,2.19658
1376408850729,2.20734
1376408910729,2.21149
1376408970729,2.21497
1376409030729,2.22156
1376409090729,2.21605
1376409150728,2.19130
1376409210728,2.21411
1376409270728,2.20358
1376409330729,2.22084
1376409390729,2.23817
1376409450729,2.20751
1376409510729,2.19688
1376409570729,2.19665
1376409630740,2.19015
1376409690740,2.22039
1376409750740,2.19755
1376409810740,2.21756
1376409870740,2.24378
1376409930740,2.17520
1376409990740,2.19683
1376410050740,2.23083
1376410110740,2.22758
1376410170740,2.21387
1376410230740,2.20094
1376410290740,2.21058
1376410350740,2.20735
1376410410740,2.19761
1376410470740,2.20878
1376410530740,2.20761
1376410590740,2.19676
1376410650740,2.18439
1376410710740,2.19715
1376410770740,2.21688
1376410830740,2.21315
1376410890740,2.21051
1376410950740,2.18553
1376411010740,2.20301
1376411070740,2.20291
1376411130740,2.18536
1376411190740,2.23551
1376411250740,2.19303
1376411310740,2.20579
1376411370740,2.19451
1376411430740,2.19143
1376411490740,2.12661
1376411550740,2.09345
1376411610740,2.17830
1376411670740,2.18239
1376411730740,2.18518
1376411790740,2.20662
1376411850740,2.17222
1376411910740,2.20224
1376411970740,2.18009
1376412030740,2.18946
1376412090740,2.19684
1376412150740,2.18356
1376412210740,2.19962
1376412270740,2.19616
1376412330740,2.21165
1376412390740,2.20601
1376412450740,2.21361
1376412510740,2.18156
1376412570740,2.20203
1376412630740,2.16913
1376412690740,2.18832
1376412750740,2.20436
1376412810740,2.18907
1376412870740,2.20389
1376412930740,2.17569
1376412990740,2.16694
1376413050740,2.20023
1376413110740,2.20907
1376413170740,2.19112
1376413230751,2.18278
1376413290751,2.18714
1376413350751,2.15781
1376413410751,2.16981
1376413470751,2.19320
1376413530751,2.19396
1376413590751,2.17136
1376413650751,2.17581
1376413710751,2.21617
1376413770751,2.18958
1376413830751,2.17637
1376413890751,2.19692
1376413950751,2.17568
1376414010751,2.18234
1376414070751,2.18979
1376414130751,2.17867
1376414190751,2.19228
1376414250751,2.18884
1376414310751,2.18963
1376414370751,2.16657
1376414430751,2.16680
1376414490751,2.17608
1376414550751,2.18979
1376414610751,2.16976
1376414670751,2.16771
1376414730751,2.16270
1376414790751,2.17432
1376414850751,2.16993
1376414910751,2.17275
1376414970751,2.19010
1376415030751,2.19314
1376415090751,2.18515
1376415150751,2.21419
1376415210751,2.19941
1376415270751,2.21378
1376415330751,2.18887
1376415390751,2.18936
1376415450751,2.19052
1376415510751,2.17984
1376415570751,2.19357
1376415630751,2.17659
1376415690751,2.20091
1376415750751,2.19500
1376415810751,2.18230
1376415870751,2.19171
1376415930751,2.18809
1376415990751,2.16869
1376416050751,2.21532
1376416110751,2.14676
1376416170751,2.16387
1376416230751,2.17297
1376416290751,2.18024
1376416350751,2.18098
1376416410751,2.15337
1376416470751,2.16572
1376416530751,2.16395
1376416590751,2.19070
1376416650751,2.19258
1376416710751,2.18933
1376416770751,2.16016
1376416830763,2.18666
1376416890763,2.19776
1376416950763,2.19108
1376417010763,2.18889
1376417070763,2.20152
1376417130763,2.22726
1376417190763,2.18667
1376417250763,2.16783
1376417310763,2.18252
1376417370763,2.16633
1376417430763,2.16410
1376417490763,2.22605
1376417550763,2.15919
1376417610763,2.19051
1376417670763,2.19753
1376417730763,2.21876
1376417790763,2.19851
1376417850763,2.16836